FLOCK 4Y 8

导读

FLOCK 4Y 8是美国Planet公司研制发射的SuperDove系列商业遥感卫星,属于FLOCK-4y批次,于2023年1月3日发射入轨,是该批次36颗卫星中的一员。卫星配备八个光谱波段,主要为地球观测提供高质量影像数据,补充Planet现有遥感卫星星座容量,可服务农业、林业等多领域,为行业决策提供数据支撑。

Basic Information
目录编号:
55071
目录名称:
FLOCK 4Y 8
国际标识:
2023-001BQ
轨道中心:
EARTH
卫星名称:
FLOCK 4Y 8
卫星全名:
--
卫星状态:
已陨落 最后检测时间 2025-05-06
发射日期:
2023-01-03 UTC
国别 :
美国 (US)
星等 :
--
Orbit Information
数据来源 国际轨道数据
星历时间: 2025-05-03T13:57:57+0800
轨道信息已过期450天
半长轴: 6559.743km
偏心率: 0.0013758
轨道倾角: 97.342°
近地点辐角 262.108°
升交点赤经 198.869°
平近点角 97.866°
近地点: 172.583km
远地点: 190.633km
周期: 88.123分钟
每日圈数: 16.340774
Detailed Information
使用方式:
暂无